| time (UTC) | temp F | wind direction | speed MPH | gust MPH | rain 1hr in | rain 24hr in | rain mn in | humidity % | barometer mb |
| 20260507014100 | 83 | 277 | 4.0 | 10.0 | 0.00 | 0.00 | 0.00 | 81 | 997.9 |
| 20260507013600 | 83 | 290 | 5.0 | 12.0 | 0.00 | 0.00 | 0.00 | 81 | 998.0 |
| 20260507013102 | 83 | 248 | 6.0 | 12.0 | 0.00 | 0.00 | 0.00 | 81 | 998.0 |
| 20260507012501 | 83 | 238 | 4.0 | 11.0 | 0.00 | 0.00 | 0.00 | 81 | 997.9 |
| 20260507012101 | 83 | 267 | 5.0 | 11.0 | 0.00 | 0.00 | 0.00 | 81 | 998.0 |
| 20260507011601 | 83 | 248 | 2.0 | 11.0 | 0.00 | 0.00 | 0.00 | 81 | 998.0 |
| 20260507011501 | 83 | 245 | 4.0 | 11.0 | 0.00 | 0.00 | 0.00 | 81 | 998.0 |
| 20260507011102 | 83 | 248 | 5.0 | 11.0 | 0.00 | 0.00 | 0.00 | 81 | 998.0 |
| 20260507010600 | 83 | 269 | 6.0 | 13.0 | 0.00 | 0.00 | 0.00 | 81 | 997.9 |
| 20260507010116 | 83 | 333 | 5.0 | 13.0 | 0.00 | 0.00 | 0.00 | 81 | 997.6 |
| 20260507010004 | 83 | 267 | 4.0 | 13.0 | 0.00 | 0.00 | 0.00 | 81 | 997.6 |
| 20260507005501 | 83 | 296 | 6.0 | 13.0 | 0.00 | 0.00 | 0.00 | 81 | 997.6 |
| 20260507005004 | 83 | 265 | 5.0 | 11.0 | 0.00 | 0.00 | 0.00 | 80 | 997.5 |
| 20260507004501 | 83 | 298 | 4.0 | 11.0 | 0.00 | 0.00 | 0.00 | 81 | 997.3 |
| 20260507004001 | 83 | 271 | 2.0 | 11.0 | 0.00 | 0.00 | 0.00 | 81 | 997.2 |
| 20260507003501 | 83 | 208 | 3.0 | 11.0 | 0.00 | 0.00 | 0.00 | 81 | 997.2 |
| 20260507003000 | 83 | 261 | 5.0 | 12.0 | 0.00 | 0.00 | 0.00 | 80 | 997.2 |
| 20260507002502 | 83 | 234 | 4.0 | 17.0 | 0.00 | 0.00 | 0.00 | 80 | 997.1 |
| 20260507002002 | 83 | 263 | 5.0 | 17.0 | 0.00 | 0.00 | 0.00 | 80 | 997.1 |
| 20260507001501 | 83 | 261 | 4.0 | 13.0 | 0.00 | 0.00 | 0.00 | 80 | 997.1 |
| 20260507001001 | 84 | 192 | 6.0 | 13.0 | 0.00 | 0.00 | 0.00 | 80 | 997.0 |
| 20260507000502 | 83 | 228 | 3.0 | 13.0 | 0.00 | 0.00 | 0.00 | 80 | 996.8 |
| 20260507000002 | 83 | 178 | 4.0 | 18.0 | 0.00 | 0.00 | 0.00 | 80 | 996.9 |
| 20260506235601 | 84 | 222 | 5.0 | 18.0 | 0.00 | 0.00 | 0.00 | 80 | 996.8 |
| 20260506235103 | 84 | 216 | 5.0 | 16.0 | 0.00 | 0.00 | 0.00 | 80 | 996.6 |
| 20260506234601 | 84 | 225 | 7.0 | 16.0 | 0.00 | 0.00 | 0.00 | 80 | 996.4 |
| 20260506234100 | 84 | 199 | 6.0 | 13.0 | 0.00 | 0.00 | 0.00 | 80 | 996.3 |
| 20260506233601 | 84 | 306 | 6.0 | 16.0 | 0.00 | 0.00 | 0.00 | 80 | 996.4 |
| 20260506233503 | 84 | 291 | 8.0 | 16.0 | 0.00 | 0.00 | 0.00 | 80 | 996.5 |
| 20260506233100 | 84 | 203 | 7.0 | 16.0 | 0.00 | 0.00 | 0.00 | 79 | 996.5 |
| 20260506232603 | 84 | 265 | 8.0 | 16.0 | 0.00 | 0.00 | 0.00 | 79 | 996.5 |
| 20260506232100 | 84 | 284 | 8.0 | 16.0 | 0.00 | 0.00 | 0.00 | 78 | 996.5 |
| 20260506232000 | 85 | 238 | 9.0 | 16.0 | 0.00 | 0.00 | 0.00 | 78 | 996.5 |
| 20260506231612 | 85 | 233 | 4.0 | 16.0 | 0.00 | 0.00 | 0.00 | 77 | 996.4 |
| 20260506231501 | 85 | 248 | 3.0 | 16.0 | 0.00 | 0.00 | 0.00 | 77 | 996.5 |
| 20260506231059 | 85 | 227 | 5.0 | 13.0 | 0.00 | 0.00 | 0.00 | 77 | 996.4 |
| 20260506230600 | 85 | 289 | 7.0 | 15.0 | 0.00 | 0.00 | 0.00 | 76 | 996.3 |
| 20260506230124 | 85 | 263 | 4.0 | 13.0 | 0.00 | 0.00 | 0.00 | 76 | 996.3 |
| 20260506225600 | 85 | 263 | 6.0 | 14.0 | 0.00 | 0.00 | 0.00 | 76 | 996.4 |
| 20260506225001 | 85 | 229 | 4.0 | 15.0 | 0.00 | 0.00 | 0.00 | 76 | 996.4 |
| 20260506224603 | 85 | 231 | 6.0 | 23.0 | 0.00 | 0.00 | 0.00 | 77 | 996.4 |
| 20260506224101 | 85 | 250 | 9.0 | 23.0 | 0.00 | 0.00 | 0.00 | 77 | 996.3 |
| 20260506223600 | 85 | 286 | 7.0 | 15.0 | 0.00 | 0.00 | 0.00 | 77 | 996.3 |
| 20260506223101 | 86 | 292 | 7.0 | 14.0 | 0.00 | 0.00 | 0.00 | 76 | 996.3 |
| 20260506222600 | 86 | 298 | 7.0 | 15.0 | 0.00 | 0.00 | 0.00 | 76 | 996.4 |
| 20260506222100 | 86 | 264 | 9.0 | 18.0 | 0.00 | 0.00 | 0.00 | 76 | 996.3 |
| 20260506221631 | 87 | 215 | 7.0 | 18.0 | 0.00 | 0.00 | 0.00 | 75 | 996.3 |
| 20260506221000 | 87 | 254 | 5.0 | 15.0 | 0.00 | 0.00 | 0.00 | 75 | 996.3 |
| 20260506220600 | 87 | 275 | 8.0 | 15.0 | 0.00 | 0.00 | 0.00 | 74 | 996.2 |
| 20260506220132 | 87 | 285 | 7.0 | 20.0 | 0.00 | 0.00 | 0.00 | 74 | 996.2 |
| 20260506220004 | 87 | 307 | 6.0 | 20.0 | 0.00 | 0.00 | 0.00 | 75 | 996.2 |
| 20260506215600 | 86 | 269 | 10.0 | 20.0 | 0.00 | 0.00 | 0.00 | 75 | 996.2 |
| 20260506215100 | 86 | 232 | 10.0 | 21.0 | 0.00 | 0.00 | 0.00 | 75 | 996.3 |
| 20260506214601 | 87 | 235 | 8.0 | 21.0 | 0.00 | 0.00 | 0.00 | 74 | 996.3 |
| 20260506214501 | 87 | 295 | 8.0 | 21.0 | 0.00 | 0.00 | 0.00 | 74 | 996.2 |
| 20260506214101 | 87 | 257 | 8.0 | 17.0 | 0.00 | 0.00 | 0.00 | 72 | 996.3 |
| 20260506213600 | 87 | 251 | 8.0 | 16.0 | 0.00 | 0.00 | 0.00 | 72 | 996.3 |
| 20260506213001 | 87 | 212 | 8.0 | 19.0 | 0.00 | 0.00 | 0.00 | 72 | 996.2 |
| 20260506212601 | 87 | 221 | 9.0 | 18.0 | 0.00 | 0.00 | 0.00 | 72 | 996.2 |
| 20260506212502 | 87 | 270 | 9.0 | 18.0 | 0.00 | 0.00 | 0.00 | 72 | 996.2 |
| 20260506212001 | 87 | 217 | 9.0 | 18.0 | 0.00 | 0.00 | 0.00 | 71 | 996.2 |
| 20260506211601 | 87 | 209 | 10.0 | 18.0 | 0.00 | 0.00 | 0.00 | 74 | 996.3 |
| 20260506211100 | 87 | 252 | 11.0 | 16.0 | 0.00 | 0.00 | 0.00 | 74 | 996.2 |
| 20260506211001 | 87 | 208 | 10.0 | 17.0 | 0.00 | 0.00 | 0.00 | 74 | 996.4 |
| 20260506210601 | 86 | 279 | 10.0 | 25.0 | 0.00 | 0.00 | 0.00 | 75 | 996.5 |
| 20260506210106 | 86 | 205 | 12.0 | 25.0 | 0.00 | 0.00 | 0.00 | 76 | 996.3 |
| 20260506210002 | 86 | 209 | 14.0 | 25.0 | 0.00 | 0.00 | 0.00 | 76 | 996.5 |
| 20260506205600 | 86 | 252 | 10.0 | 22.0 | 0.00 | 0.00 | 0.00 | 76 | 996.5 |
| 20260506205102 | 86 | 246 | 13.0 | 22.0 | 0.00 | 0.00 | 0.00 | 76 | 996.4 |
| 20260506204608 | 86 | 270 | 9.0 | 22.0 | 0.00 | 0.00 | 0.00 | 76 | 996.5 |
| 20260506204100 | 86 | 267 | 11.0 | 23.0 | 0.00 | 0.00 | 0.00 | 76 | 996.3 |
| 20260506203501 | 86 | 292 | 12.0 | 21.0 | 0.00 | 0.00 | 0.00 | 76 | 996.6 |
| 20260506203100 | 86 | 228 | 9.0 | 21.0 | 0.00 | 0.00 | 0.00 | 76 | 996.5 |
| 20260506202600 | 86 | 229 | 12.0 | 21.0 | 0.00 | 0.00 | 0.00 | 76 | 996.6 |
| 20260506202001 | 86 | 267 | 11.0 | 19.0 | 0.00 | 0.00 | 0.00 | 74 | 996.9 |
| 20260506201600 | 86 | 240 | 12.0 | 19.0 | 0.00 | 0.00 | 0.00 | 73 | 996.8 |
| 20260506201059 | 86 | 235 | 12.0 | 19.0 | 0.00 | 0.00 | 0.00 | 73 | 996.8 |
| 20260506200603 | 87 | 294 | 11.0 | 18.0 | 0.00 | 0.00 | 0.00 | 71 | 996.9 |
| 20260506200100 | 87 | 234 | 8.0 | 19.0 | 0.00 | 0.00 | 0.00 | 72 | 996.9 |
| 20260506200003 | 87 | 217 | 10.0 | 19.0 | 0.00 | 0.00 | 0.00 | 73 | 996.9 |
| 20260506195600 | 87 | 218 | 10.0 | 19.0 | 0.00 | 0.00 | 0.00 | 72 | 997.1 |
| 20260506195101 | 87 | 262 | 10.0 | 20.0 | 0.00 | 0.00 | 0.00 | 73 | 997.2 |
| 20260506194501 | 87 | 241 | 11.0 | 19.0 | 0.00 | 0.00 | 0.00 | 71 | 997.1 |
| 20260506194100 | 88 | 248 | 8.0 | 18.0 | 0.00 | 0.00 | 0.00 | 70 | 997.2 |
| 20260506194000 | 88 | 206 | 8.0 | 18.0 | 0.00 | 0.00 | 0.00 | 70 | 997.2 |
| 20260506193501 | 88 | 272 | 8.0 | 16.0 | 0.00 | 0.00 | 0.00 | 69 | 997.3 |
| 20260506193116 | 88 | 246 | 7.0 | 15.0 | 0.00 | 0.00 | 0.00 | 69 | 997.4 |
| 20260506192601 | 88 | 300 | 8.0 | 17.0 | 0.00 | 0.00 | 0.00 | 68 | 997.4 |
| 20260506192100 | 88 | 238 | 10.0 | 19.0 | 0.00 | 0.00 | 0.00 | 68 | 997.4 |
| 20260506192002 | 88 | 245 | 10.0 | 19.0 | 0.00 | 0.00 | 0.00 | 68 | 997.3 |
| 20260506191628 | 88 | 289 | 10.0 | 17.0 | 0.00 | 0.00 | 0.00 | 68 | 997.6 |
| 20260506191100 | 88 | 250 | 8.0 | 21.0 | 0.00 | 0.00 | 0.00 | 69 | 997.4 |
| 20260506190600 | 89 | 267 | 8.0 | 21.0 | 0.00 | 0.00 | 0.00 | 67 | 997.5 |
| 20260506190002 | 89 | 327 | 6.0 | 14.0 | 0.00 | 0.00 | 0.00 | 68 | 997.7 |
| 20260506185501 | 89 | 291 | 6.0 | 14.0 | 0.00 | 0.00 | 0.00 | 69 | 997.8 |
| 20260506185100 | 89 | 298 | 7.0 | 13.0 | 0.00 | 0.00 | 0.00 | 67 | 997.9 |
| 20260506184634 | 89 | 230 | 7.0 | 15.0 | 0.00 | 0.00 | 0.00 | 68 | 997.8 |
| 20260506184102 | 88 | 240 | 6.0 | 15.0 | 0.00 | 0.00 | 0.00 | 70 | 998.0 |
| 20260506183604 | 88 | 283 | 7.0 | 15.0 | 0.00 | 0.00 | 0.00 | 70 | 998.1 |
| 20260506183114 | 88 | 297 | 8.0 | 16.0 | 0.00 | 0.00 | 0.00 | 70 | 998.2 |
| 20260506182501 | 89 | 237 | 7.0 | 16.0 | 0.00 | 0.00 | 0.00 | 70 | 998.3 |
| 20260506182100 | 89 | 221 | 7.0 | 13.0 | 0.00 | 0.00 | 0.00 | 70 | 998.2 |
| 20260506182002 | 89 | 236 | 5.0 | 13.0 | 0.00 | 0.00 | 0.00 | 69 | 998.3 |
| 20260506181501 | 89 | 278 | 5.0 | 10.0 | 0.00 | 0.00 | 0.00 | 70 | 998.4 |
| 20260506181101 | 89 | 263 | 5.0 | 12.0 | 0.00 | 0.00 | 0.00 | 71 | 998.4 |
| 20260506180502 | 88 | 285 | 7.0 | 13.0 | 0.00 | 0.00 | 0.00 | 70 | 998.6 |
| 20260506180100 | 88 | 288 | 5.0 | 13.0 | 0.00 | 0.00 | 0.00 | 72 | 998.5 |
| 20260506175558 | 88 | 249 | 9.0 | 13.0 | 0.00 | 0.00 | 0.00 | 71 | 998.5 |
| 20260506175059 | 88 | 267 | 6.0 | 11.0 | 0.00 | 0.00 | 0.00 | 70 | 998.8 |
| 20260506174559 | 88 | 265 | 5.0 | 10.0 | 0.00 | 0.00 | 0.00 | 70 | 998.8 |
| 20260506174101 | 89 | 277 | 3.0 | 9.0 | 0.00 | 0.00 | 0.00 | 68 | 998.9 |
| 20260506173601 | 89 | 301 | 3.0 | 10.0 | 0.00 | 0.00 | 0.00 | 68 | 999.0 |
| 20260506173100 | 89 | 318 | 0.0 | 7.0 | 0.00 | 0.00 | 0.00 | 66 | 999.1 |
| 20260506172600 | 89 | 159 | 1.0 | 9.0 | 0.00 | 0.00 | 0.00 | 66 | 999.2 |
| 20260506172059 | 89 | 253 | 3.0 | 10.0 | 0.00 | 0.00 | 0.00 | 66 | 999.1 |
| 20260506171608 | 90 | 229 | 4.0 | 11.0 | 0.00 | 0.00 | 0.00 | 65 | 999.2 |
| 20260506171100 | 90 | 136 | 3.0 | 11.0 | 0.00 | 0.00 | 0.00 | 65 | 999.2 |
| 20260506170559 | 90 | 123 | 3.0 | 8.0 | 0.00 | 0.00 | 0.00 | 62 | 999.3 |
| 20260506170001 | 89 | 107 | 1.0 | 8.0 | 0.00 | 0.00 | 0.00 | 63 | 999.2 |
| 20260506165501 | 89 | 153 | 3.0 | 8.0 | 0.00 | 0.00 | 0.00 | 65 | 999.2 |
| 20260506165100 | 89 | 148 | 2.0 | 7.0 | 0.00 | 0.00 | 0.00 | 64 | 999.3 |
| 20260506165002 | 89 | 149 | 1.0 | 7.0 | 0.00 | 0.00 | 0.00 | 64 | 999.3 |
| 20260506164600 | 89 | 131 | 2.0 | 7.0 | 0.00 | 0.00 | 0.00 | 65 | 999.3 |
| 20260506164500 | 89 | 136 | 1.0 | 7.0 | 0.00 | 0.00 | 0.00 | 65 | 999.3 |
| 20260506164100 | 89 | 155 | 2.0 | 7.0 | 0.00 | 0.00 | 0.00 | 65 | 999.4 |
| 20260506163502 | 89 | 86 | 0.0 | 6.0 | 0.00 | 0.00 | 0.00 | 64 | 999.5 |
| 20260506163001 | 89 | 101 | 0.0 | 4.0 | 0.00 | 0.00 | 0.00 | 65 | 999.6 |
| 20260506162600 | 89 | 105 | 1.0 | 4.0 | 0.00 | 0.00 | 0.00 | 64 | 999.6 |
| 20260506162103 | 88 | 55 | 0.0 | 4.0 | 0.00 | 0.00 | 0.00 | 66 | 999.6 |
| 20260506161602 | 88 | 188 | 2.0 | 6.0 | 0.00 | 0.00 | 0.00 | 66 | 999.6 |
| 20260506161002 | 88 | 150 | 0.0 | 4.0 | 0.00 | 0.00 | 0.00 | 66 | 999.6 |
| 20260506160600 | 88 | 317 | 1.0 | 4.0 | 0.00 | 0.00 | 0.00 | 66 | 999.7 |
| 20260506160503 | 88 | 44 | 0.0 | 4.0 | 0.00 | 0.00 | 0.00 | 67 | 999.7 |
| 20260506160109 | 88 | 113 | 1.0 | 3.0 | 0.00 | 0.00 | 0.00 | 67 | 999.8 |
| 20260506160001 | 88 | 129 | 1.0 | 3.0 | 0.00 | 0.00 | 0.00 | 67 | 999.8 |
| 20260506155559 | 87 | 139 | 0.0 | 2.0 | 0.00 | 0.00 | 0.00 | 67 | 999.6 |
| 20260506155059 | 87 | 117 | 0.0 | 3.0 | 0.00 | 0.00 | 0.00 | 68 | 999.6 |
| 20260506154559 | 87 | 128 | 1.0 | 3.0 | 0.00 | 0.00 | 0.00 | 67 | 999.5 |
| 20260506154102 | 87 | 114 | 0.0 | 3.0 | 0.00 | 0.00 | 0.00 | 67 | 999.6 |
| 20260506153559 | 87 | 215 | 1.0 | 3.0 | 0.00 | 0.00 | 0.00 | 67 | 999.6 |
| 20260506153100 | 86 | 28 | 0.0 | 3.0 | 0.00 | 0.00 | 0.00 | 68 | 999.6 |
| 20260506152559 | 86 | 131 | 1.0 | 3.0 | 0.00 | 0.00 | 0.00 | 69 | 999.8 |
| 20260506152059 | 85 | 170 | 0.0 | 2.0 | 0.00 | 0.00 | 0.00 | 71 | 999.5 |
| 20260506151600 | 85 | 278 | 0.0 | 4.0 | 0.00 | 0.00 | 0.00 | 70 | 999.5 |
| 20260506151059 | 86 | 212 | 1.0 | 3.0 | 0.00 | 0.00 | 0.00 | 70 | 999.4 |
| 20260506150559 | 86 | 166 | 1.0 | 3.0 | 0.00 | 0.00 | 0.00 | 70 | 999.4 |
| 20260506150100 | 86 | 124 | 0.0 | 3.0 | 0.00 | 0.00 | 0.00 | 70 | 999.4 |
| 20260506150001 | 86 | 124 | 0.0 | 3.0 | 0.00 | 0.00 | 0.00 | 70 | 999.4 |
| 20260506145600 | 85 | 153 | 0.0 | 3.0 | 0.00 | 0.00 | 0.00 | 70 | 999.5 |
| 20260506145502 | 86 | 136 | 0.0 | 3.0 | 0.00 | 0.00 | 0.00 | 70 | 999.5 |
| 20260506145200 | 86 | 153 | 1.0 | 3.0 | 0.00 | 0.00 | 0.00 | 71 | 999.3 |
| 20260506144604 | 86 | 105 | 1.0 | 2.0 | 0.00 | 0.00 | 0.00 | 71 | 999.2 |
| 20260506144059 | 85 | 128 | 0.0 | 3.0 | 0.00 | 0.00 | 0.00 | 73 | 999.3 |
| 20260506143600 | 85 | 124 | 0.0 | 3.0 | 0.00 | 0.00 | 0.00 | 73 | 999.2 |
| 20260506143059 | 85 | 59 | 0.0 | 2.0 | 0.00 | 0.00 | 0.00 | 73 | 999.1 |
| 20260506142558 | 84 | 129 | 0.0 | 2.0 | 0.00 | 0.00 | 0.00 | 74 | 998.9 |
| 20260506142101 | 84 | 74 | 0.0 | 2.0 | 0.00 | 0.00 | 0.00 | 74 | 998.8 |
| 20260506141559 | 84 | 54 | 0.0 | 2.0 | 0.00 | 0.00 | 0.00 | 74 | 998.9 |
| 20260506141100 | 84 | 128 | 0.0 | 0.0 | 0.00 | 0.00 | 0.00 | 75 | 998.7 |
| 20260506140559 | 84 | 71 | 0.0 | 0.0 | 0.00 | 0.00 | 0.00 | 76 | 998.8 |
| 20260506140104 | 83 | 79 | 0.0 | 0.0 | 0.00 | 0.00 | 0.00 | 77 | 998.8 |
| 20260506140002 | 83 | 79 | 0.0 | 0.0 | 0.00 | 0.00 | 0.00 | 77 | 998.7 |
| 20260506135558 | 83 | 112 | 0.0 | 0.0 | 0.00 | 0.00 | 0.00 | 77 | 998.8 |
| 20260506135059 | 82 | 89 | 0.0 | 0.0 | 0.00 | 0.00 | 0.00 | 78 | 998.6 |
| 20260506134559 | 82 | 88 | 0.0 | 2.0 | 0.00 | 0.00 | 0.00 | 78 | 998.6 |
| 20260506134103 | 82 | 93 | 0.0 | 2.0 | 0.00 | 0.00 | 0.00 | 79 | 998.5 |
| 20260506133559 | 82 | 96 | 0.0 | 2.0 | 0.00 | 0.00 | 0.00 | 80 | 998.5 |
| 20260506133100 | 81 | 113 | 0.0 | 2.0 | 0.00 | 0.00 | 0.00 | 80 | 998.4 |
| 20260506132600 | 81 | 120 | 0.0 | 0.0 | 0.00 | 0.00 | 0.00 | 81 | 998.4 |
| 20260506132102 | 81 | 107 | 0.0 | 0.0 | 0.00 | 0.00 | 0.00 | 81 | 998.4 |
| 20260506131612 | 80 | 101 | 0.0 | 0.0 | 0.00 | 0.00 | 0.00 | 82 | 998.4 |
| 20260506131100 | 80 | 98 | 0.0 | 0.0 | 0.00 | 0.00 | 0.00 | 82 | 998.3 |
| 20260506130601 | 80 | 98 | 0.0 | 2.0 | 0.00 | 0.00 | 0.00 | 82 | 998.2 |
| 20260506130059 | 80 | 109 | 0.0 | 2.0 | 0.00 | 0.00 | 0.00 | 82 | 998.1 |
| 20260506130001 | 80 | 126 | 0.0 | 2.0 | 0.00 | 0.00 | 0.00 | 83 | 998.1 |
| 20260506125558 | 80 | 117 | 0.0 | 4.0 | 0.00 | 0.00 | 0.00 | 83 | 998.0 |
| 20260506125100 | 80 | 225 | 1.0 | 4.0 | 0.00 | 0.00 | 0.00 | 84 | 997.8 |
| 20260506124559 | 80 | 263 | 1.0 | 5.0 | 0.00 | 0.00 | 0.00 | 85 | 997.8 |
| 20260506124100 | 80 | 302 | 3.0 | 7.0 | 0.00 | 0.00 | 0.00 | 86 | 997.8 |
| 20260506123559 | 80 | 300 | 1.0 | 7.0 | 0.00 | 0.00 | 0.00 | 86 | 997.8 |
| 20260506123059 | 80 | 261 | 3.0 | 7.0 | 0.00 | 0.00 | 0.00 | 86 | 997.9 |
| 20260506122559 | 80 | 284 | 4.0 | 6.0 | 0.00 | 0.00 | 0.00 | 85 | 997.7 |
| 20260506122059 | 80 | 253 | 2.0 | 7.0 | 0.00 | 0.00 | 0.00 | 85 | 997.6 |
| 20260506121601 | 79 | 271 | 3.0 | 8.0 | 0.00 | 0.00 | 0.00 | 85 | 997.6 |
| 20260506121059 | 79 | 265 | 4.0 | 9.0 | 0.00 | 0.00 | 0.00 | 85 | 997.5 |
| 20260506120604 | 80 | 287 | 5.0 | 9.0 | 0.00 | 0.00 | 0.00 | 85 | 997.5 |
| 20260506120103 | 79 | 253 | 4.0 | 7.0 | 0.00 | 0.00 | 0.00 | 84 | 997.5 |
| 20260506115558 | 79 | 279 | 3.0 | 6.0 | 0.00 | 0.00 | 0.00 | 81 | 997.4 |
| 20260506115058 | 79 | 288 | 2.0 | 3.0 | 0.00 | 0.00 | 0.00 | 80 | 997.3 |
| 20260506114559 | 79 | 300 | 1.0 | 3.0 | 0.00 | 0.00 | 0.00 | 80 | 997.3 |
| 20260506114104 | 79 | 322 | 1.0 | 3.0 | 0.00 | 0.00 | 0.00 | 81 | 997.2 |
| 20260506113558 | 79 | 297 | 1.0 | 3.0 | 0.00 | 0.00 | 0.00 | 80 | 997.1 |
| 20260506113100 | 79 | 278 | 1.0 | 3.0 | 0.00 | 0.00 | 0.00 | 81 | 997.1 |
| 20260506112558 | 79 | 304 | 1.0 | 3.0 | 0.00 | 0.00 | 0.00 | 81 | 997.1 |
| 20260506112059 | 79 | 287 | 0.0 | 2.0 | 0.00 | 0.00 | 0.00 | 81 | 997.1 |
| 20260506111559 | 79 | 312 | 0.0 | 0.0 | 0.00 | 0.00 | 0.00 | 80 | 996.9 |
| 20260506111101 | 79 | 292 | 0.0 | 0.0 | 0.00 | 0.00 | 0.00 | 81 | 996.8 |
| 20260506110559 | 79 | 292 | 0.0 | 0.0 | 0.00 | 0.00 | 0.00 | 81 | 996.9 |
| 20260506110100 | 79 | 292 | 0.0 | 0.0 | 0.00 | 0.00 | 0.00 | 81 | 996.7 |
| 20260506105559 | 79 | 317 | 0.0 | 0.0 | 0.00 | 0.00 | 0.00 | 81 | 996.6 |
| 20260506105104 | 79 | 305 | 0.0 | 3.0 | 0.00 | 0.00 | 0.00 | 81 | 996.4 |
| 20260506104607 | 79 | 294 | 0.0 | 3.0 | 0.00 | 0.00 | 0.00 | 81 | 996.5 |
| 20260506104101 | 79 | 283 | 1.0 | 3.0 | 0.00 | 0.00 | 0.00 | 81 | 996.4 |
| 20260506103600 | 79 | 275 | 0.0 | 3.0 | 0.00 | 0.00 | 0.00 | 81 | 996.4 |
| 20260506103100 | 79 | 309 | 0.0 | 2.0 | 0.00 | 0.00 | 0.00 | 81 | 996.5 |
| 20260506102601 | 79 | 284 | 1.0 | 2.0 | 0.00 | 0.00 | 0.00 | 81 | 996.4 |
| 20260506102100 | 79 | 300 | 0.0 | 2.0 | 0.00 | 0.00 | 0.00 | 81 | 996.4 |
| 20260506101600 | 79 | 295 | 1.0 | 2.0 | 0.00 | 0.00 | 0.00 | 80 | 996.4 |
| 20260506101100 | 79 | 283 | 1.0 | 2.0 | 0.00 | 0.00 | 0.00 | 80 | 996.5 |
| 20260506100602 | 79 | 275 | 0.0 | 2.0 | 0.00 | 0.00 | 0.00 | 80 | 996.6 |
| 20260506100114 | 79 | 301 | 0.0 | 2.0 | 0.00 | 0.00 | 0.00 | 80 | 996.6 |
| 20260506100002 | 79 | 296 | 0.0 | 2.0 | 0.00 | 0.00 | 0.00 | 80 | 996.6 |
| 20260506095603 | 79 | 302 | 0.0 | 2.0 | 0.00 | 0.00 | 0.00 | 80 | 996.6 |
| 20260506095101 | 79 | 294 | 0.0 | 2.0 | 0.00 | 0.00 | 0.00 | 80 | 996.7 |
| 20260506094602 | 79 | 281 | 0.0 | 2.0 | 0.00 | 0.00 | 0.00 | 80 | 996.7 |
| 20260506094059 | 79 | 302 | 0.0 | 0.0 | 0.00 | 0.00 | 0.00 | 81 | 996.8 |
| 20260506093600 | 79 | 302 | 0.0 | 0.0 | 0.00 | 0.00 | 0.00 | 81 | 996.8 |
| 20260506093100 | 79 | 304 | 0.0 | 0.0 | 0.00 | 0.00 | 0.00 | 82 | 996.8 |
| 20260506092559 | 79 | 300 | 0.0 | 0.0 | 0.00 | 0.00 | 0.00 | 82 | 996.7 |
| 20260506092059 | 79 | 294 | 0.0 | 2.0 | 0.00 | 0.00 | 0.00 | 82 | 996.8 |
| 20260506091600 | 79 | 292 | 0.0 | 2.0 | 0.00 | 0.00 | 0.00 | 83 | 996.9 |
| 20260506091059 | 79 | 286 | 1.0 | 2.0 | 0.00 | 0.00 | 0.00 | 83 | 996.9 |
| 20260506090558 | 79 | 294 | 0.0 | 2.0 | 0.00 | 0.00 | 0.00 | 83 | 996.9 |
| 20260506090100 | 79 | 291 | 0.0 | 2.0 | 0.00 | 0.00 | 0.00 | 83 | 997.0 |
| 20260506085558 | 79 | 304 | 0.0 | 3.0 | 0.00 | 0.00 | 0.00 | 83 | 997.1 |
| 20260506085100 | 79 | 294 | 1.0 | 3.0 | 0.00 | 0.00 | 0.00 | 83 | 997.1 |
| 20260506084604 | 79 | 306 | 0.0 | 0.0 | 0.00 | 0.00 | 0.00 | 83 | 997.2 |
| 20260506084100 | 79 | 290 | 0.0 | 0.0 | 0.00 | 0.00 | 0.00 | 83 | 997.3 |
| 20260506083559 | 79 | 284 | 0.0 | 0.0 | 0.00 | 0.00 | 0.00 | 83 | 997.3 |
| 20260506083101 | 79 | 293 | 0.0 | 0.0 | 0.00 | 0.00 | 0.00 | 83 | 997.3 |
| 20260506082559 | 80 | 293 | 0.0 | 2.0 | 0.00 | 0.00 | 0.00 | 83 | 997.4 |
| 20260506082058 | 80 | 299 | 0.0 | 2.0 | 0.00 | 0.00 | 0.00 | 83 | 997.4 |
| 20260506081559 | 80 | 307 | 0.0 | 2.0 | 0.00 | 0.00 | 0.00 | 83 | 997.5 |
| 20260506081059 | 80 | 265 | 1.0 | 2.0 | 0.00 | 0.00 | 0.00 | 83 | 997.5 |
| 20260506080600 | 81 | 275 | 0.0 | 2.0 | 0.00 | 0.00 | 0.00 | 83 | 997.6 |
| 20260506073059 | 81 | 248 | 0.0 | 4.0 | 0.00 | 0.00 | 0.00 | 84 | 997.8 |
| 20260506072559 | 81 | 273 | 1.0 | 6.0 | 0.00 | 0.00 | 0.00 | 83 | 997.8 |
| 20260506072058 | 81 | 292 | 2.0 | 7.0 | 0.00 | 0.00 | 0.00 | 83 | 997.9 |
| 20260506071601 | 81 | 259 | 2.0 | 7.0 | 0.00 | 0.00 | 0.00 | 84 | 997.9 |
| 20260506071102 | 81 | 313 | 0.0 | 6.0 | 0.00 | 0.00 | 0.00 | 84 | 998.0 |
| 20260506070602 | 81 | 311 | 1.0 | 6.0 | 0.00 | 0.00 | 0.00 | 84 | 998.0 |
| 20260506062502 | 81 | 213 | 4.0 | 7.0 | 0.00 | 0.00 | 0.00 | 84 | 998.4 |
| 20260506062001 | 81 | 290 | 3.0 | 7.0 | 0.00 | 0.00 | 0.00 | 84 | 998.5 |
| 20260506061501 | 81 | 286 | 2.0 | 8.0 | 0.00 | 0.00 | 0.00 | 84 | 998.6 |
| 20260506061002 | 81 | 265 | 2.0 | 8.0 | 0.00 | 0.00 | 0.00 | 83 | 998.5 |
| 20260506060501 | 81 | 262 | 2.0 | 8.0 | 0.00 | 0.00 | 0.00 | 83 | 998.5 |
| 20260506051003 | 82 | 284 | 0.0 | 3.0 | 0.00 | 0.00 | 0.00 | 79 | 998.3 |
| 20260506050501 | 82 | 105 | 0.0 | 4.0 | 0.00 | 0.00 | 0.00 | 80 | 998.2 |
| 20260506045002 | 82 | 273 | 3.0 | 7.0 | 0.00 | 0.00 | 0.00 | 80 | 998.0 |
| 20260506044501 | 82 | 201 | 0.0 | 8.0 | 0.00 | 0.00 | 0.00 | 79 | 997.9 |
| 20260506044000 | 83 | 296 | 2.0 | 8.0 | 0.00 | 0.00 | 0.00 | 79 | 997.8 |
| 20260506043603 | 83 | 171 | 0.0 | 4.0 | 0.00 | 0.00 | 0.00 | 79 | 997.9 |
| 20260506043002 | 83 | 327 | 0.0 | 9.0 | 0.00 | 0.00 | 0.00 | 80 | 997.9 |
| 20260506042503 | 82 | 290 | 2.0 | 9.0 | 0.00 | 0.00 | 0.00 | 80 | 997.9 |
| 20260506042000 | 83 | 87 | 3.0 | 8.0 | 0.00 | 0.00 | 0.00 | 80 | 997.7 |
| 20260506041500 | 82 | 298 | 0.0 | 11.0 | 0.00 | 0.00 | 0.00 | 80 | 997.6 |
| 20260506041001 | 82 | 308 | 2.0 | 11.0 | 0.00 | 0.00 | 0.00 | 80 | 997.5 |
| 20260506040501 | 82 | 306 | 3.0 | 8.0 | 0.00 | 0.00 | 0.00 | 80 | 997.5 |
| 20260506040001 | 82 | 340 | 3.0 | 9.0 | 0.00 | 0.00 | 0.00 | 80 | 997.4 |
| 20260506035602 | 82 | 280 | 1.0 | 9.0 | 0.00 | 0.00 | 0.00 | 80 | 997.4 |
| 20260506035100 | 83 | 250 | 3.0 | 9.0 | 0.00 | 0.00 | 0.00 | 80 | 997.3 |
| 20260506034604 | 83 | 226 | 1.0 | 6.0 | 0.00 | 0.00 | 0.00 | 81 | 997.2 |
| 20260506034059 | 82 | 309 | 1.0 | 8.0 | 0.00 | 0.00 | 0.00 | 81 | 997.3 |
| 20260506033600 | 83 | 232 | 2.0 | 8.0 | 0.00 | 0.00 | 0.00 | 81 | 997.2 |
| 20260506033101 | 83 | 214 | 2.0 | 8.0 | 0.00 | 0.00 | 0.00 | 81 | 997.2 |
| 20260506032559 | 83 | 290 | 2.0 | 8.0 | 0.00 | 0.00 | 0.00 | 81 | 997.1 |
| 20260506032100 | 83 | 331 | 4.0 | 9.0 | 0.00 | 0.00 | 0.00 | 81 | 997.0 |
| 20260506031604 | 83 | 284 | 3.0 | 11.0 | 0.00 | 0.00 | 0.00 | 81 | 997.0 |
| 20260506031102 | 83 | 327 | 4.0 | 11.0 | 0.00 | 0.00 | 0.00 | 81 | 997.0 |
| 20260506030600 | 83 | 280 | 4.0 | 11.0 | 0.00 | 0.00 | 0.00 | 81 | 997.0 |
| 20260506030121 | 83 | 272 | 5.0 | 11.0 | 0.00 | 0.00 | 0.00 | 81 | 996.7 |
| 20260506025601 | 83 | 195 | 3.0 | 12.0 | 0.00 | 0.00 | 0.00 | 81 | 996.8 |
| 20260506025102 | 83 | 317 | 3.0 | 11.0 | 0.00 | 0.00 | 0.00 | 80 | 996.9 |
| 20260506024600 | 83 | 319 | 5.0 | 12.0 | 0.00 | 0.00 | 0.00 | 80 | 996.8 |
| 20260506024100 | 83 | 292 | 6.0 | 13.0 | 0.00 | 0.00 | 0.00 | 80 | 996.7 |
| 20260506023600 | 83 | 231 | 6.0 | 13.0 | 0.00 | 0.00 | 0.00 | 81 | 996.5 |
| 20260506023101 | 83 | 275 | 5.0 | 14.0 | 0.00 | 0.00 | 0.00 | 81 | 996.4 |
| 20260506022559 | 83 | 287 | 5.0 | 14.0 | 0.00 | 0.00 | 0.00 | 81 | 996.4 |
| 20260506022059 | 83 | 275 | 6.0 | 14.0 | 0.00 | 0.00 | 0.00 | 80 | 996.4 |
| 20260506021608 | 83 | 313 | 4.0 | 12.0 | 0.00 | 0.00 | 0.00 | 80 | 996.4 |
| 20260506021100 | 83 | 267 | 3.0 | 12.0 | 0.00 | 0.00 | 0.00 | 80 | 996.5 |
| 20260506020559 | 83 | 304 | 3.0 | 12.0 | 0.00 | 0.00 | 0.00 | 80 | 996.3 |
| 20260506020100 | 83 | 250 | 2.0 | 10.0 | 0.00 | 0.00 | 0.00 | 80 | 996.3 |
| 20260506015559 | 83 | 313 | 2.0 | 8.0 | 0.00 | 0.00 | 0.00 | 80 | 996.2 |
| 20260506015100 | 83 | 235 | 3.0 | 12.0 | 0.00 | 0.00 | 0.00 | 80 | 996.0 |
| 20260506014612 | 83 | 284 | 3.0 | 14.0 | 0.00 | 0.00 | 0.00 | 80 | 995.9 |